COSMOS 1275 DEB

Satellite information

Favourite Embed

Satellite Type and Status

DEBRISIN ORBIT

Key statistics

Satellite COSMOS 1275 DEB at a glance.

Uptime

16209

Days in orbit

Revolutions

≈ 14.1

Per day

Orbit

LEO

Low Earth Orbit

Inclination

82.8

Latest

Satellite identification and parameters

Extended collection of information and parameters for COSMOS 1275 DEB.

Object identification

Identified? True

Debris? True

Object name: COSMOS 1275 DEB

International designator: 1981-053TF

Object number (NORAD): 42191

Object ID (CCSDS): 42191

Country: COMMONWEALTH OF INDEPENDENT STATES (CIS)

Current information (Y/N): Y

RCS size: SMALL

Orbital parameters

Period: 102.175 minutes

Inclination: 82.8213 deg

SMA: 7239.754 km

Apoapsis: 887.309 km

Periapsis: 835.929 km

RAAN: 318.6392 deg

Eccentricy: 0.0035485

Argument of periapsis: 311.6727 deg

Mean anomaly: 48.1411 deg

Mean motion: 14.09344145 rev/day

Mean motion (dot): 0.000039 rev/day2

B* drag term: 0.002217201 1/REarth

Two-line elements (TLE)

Creation date: Oct. 20, 2025, 2:10 a.m.

Reference frame: TEME

Reference center: EARTH

Epoch: Oct. 19, 2025, 8:16 a.m. UTC

TLE line 0: 0 COSMOS 1275 DEB

TLE line 1: 1 42191U 81053TF 25292.34477425 .00003900 00000-0 22172-2 0 9998

TLE line 2: 2 42191 82.8213 318.6392 0035485 311.6727 48.1411 14.09344145609231

Live tracking on map

Real-time ground track for satellite COSMOS 1275 DEB.

In-orbit conjunctions

A list of the most updated potential collisions computed for object COSMOS 1275 DEB.

Target Orbit TCA Probability of collision Miss distance Type
METEOR 1-20 LEO 2025-01-30 16:24:44 0.0001488198 609.0 (m) PAYLOAD
METEOR 2-12 DEB LEO 2024-11-11 05:05:23 0.0001642464 903.0 (m) DEBRIS

Associated space launch

Navigation satellite providing location information for the Tsiklon-B navigation system

COSMOS 1275 DEB was lifted into orbit during the mission ‘Kosmos-3M | Parus 27’, on board a Kosmos-3M space rocket.

The launch took place on June 4, 1981, 3:41 p.m. from 132/2.

For more information about the launch, click the button.

Launch to space Kosmos-3M | Parus 27
Kosmos-3M | Parus 27

Agency: N/A

Status: Launch Successful

Launch date: June 4, 1981, 3:41 p.m. UTC

Rocket: Kosmos-3M

Launch pad: 132/2

Location: Plesetsk Cosmodrome, Russian Federation

...

Latest news about this satellite

There are no fresh news available about this satellite. Check back as we update our databases every day.


Newsletter sign-up

Weekly statistics, charts and insights to help you stay on top of the space industry.